Flag for Kiribati Weather past 2 weeks in Kiritimati, Christmas Island, Kiribati

Now
86 °F

Scattered clouds.


Feels Like: 97 °F
Forecast: 82 / 87 °F
Wind: 14 mph from Southeast

Location: Christmas / Cassidy

Current Time: Sep 1, 2015 at 4:22:24 PM

Latest Report: Sep 1, 2015 at 4:00 PM


Visibility: N/A

Pressure: 29.77 "Hg

Humidity: 75%

Dew point: 77 °F

Location of KiritimatiLocation

Historic Weather in Kiritimati — Graph

°F

Kiritimati temperature yesterday

Maximum temperature yesterday: 88 °F (at 10:00 AM)
Minimum temperature yesterday: 82 °F (at 1:00 AM)
Average temperature yesterday: 85 °F

Past Weeks' High & Low Weather Summary

 TemperatureHumidityPressure
High91 °F (Aug 18, 2:00 PM)100% (Aug 28, 9:00 AM)29.89 "Hg (Aug 28, 9:00 AM)
Low79 °F (Aug 18, 3:00 AM)55% (Aug 19, 2:00 PM)27.12 "Hg (Aug 27, 12:00 AM)
Average84 °F76%29.80 "Hg
* Reported Aug 17 7:00 PM — Sep 1 3:00 PM, Kiritimati, Weather by CustomWeather, © 2015

Note: Actual official high and low records may vary slightly from our data, if they occured in-between our weather recording intervals... More about our weather records

Advertising

Kiritimati weather history for previous 24 hours

 ConditionsComfort  
Time TempWeatherWind HumidityBarometerVisibility
3:00 PM
Tue, Sep 1
86 °FScattered clouds.16 mph75%29.80 "HgN/A
2:00 PM88 °FPassing clouds.15 mph70%29.80 "HgN/A
1:00 PM88 °FPassing clouds.14 mph66%29.83 "HgN/A
11:00 AM88 °FPassing clouds.13 mph66%29.86 "HgN/A
10:00 AM88 °FPassing clouds.14 mph66%29.86 "HgN/A
9:00 AM86 °FWarm.6 mph70%29.89 "HgN/A
8:00 AM86 °FScattered clouds.14 mph70%29.86 "HgN/A
6:00 AM81 °FPartly sunny.7 mph89%29.74 "HgN/A
3:00 AM81 °FScattered showers. Partly cloudy.5 mph89%29.77 "HgN/A
2:00 AM82 °FScattered showers. Partly cloudy.7 mph84%29.80 "HgN/A
1:00 AM79 °FScattered showers. Partly cloudy.2 mph94%29.80 "HgN/A
12:00 AM81 °FRain. Partly cloudy.9 mph89%29.83 "HgN/A
11:00 PM
Mon, Aug 31
82 °FPassing clouds.5 mph79%29.83 "HgN/A
10:00 PM84 °FPassing clouds.7 mph74%29.83 "HgN/A
9:00 PM84 °FPartly cloudy.12 mph74%29.80 "HgN/A
7:00 PM84 °FPassing clouds.5 mph74%29.77 "HgN/A
6:00 PM84 °FPassing clouds.7 mph70%29.74 "HgN/A
5:00 PM86 °FPassing clouds.16 mph70%29.74 "HgN/A
Weather by CustomWeather, © 2015

See weather overviewHow to use our weather pages